Weather History for Hutchinson, MN

Change the Weather History Date:

Wednesday, October 9, 2013

  Actual Average Record
Temperature  
Mean Temperature 65 °F -  
Max Temperature 76 °F 61 °F 82 °F (1966)
Min Temperature 54 °F 38 °F 17 °F (2000)
Growing Degree Days 15 (Base 50)    
Moisture  
Dew Point 49 °F    
Average Humidity 61    
Maximum Humidity 79    
Minimum Humidity 42    
Precipitation  
Precipitation 0.00 in - - ()
Sea Level Pressure  
Sea Level Pressure 29.99 in    
Wind  
Wind Speed 8 mph (SSE)    
Max Wind Speed 13 mph    
Max Gust Speed 21 mph    
Visibility 10 miles    
Events      
Averages and records for this station are not official NWS values.
T = Trace of Precipitation, MM = Missing Value Source: NWS Daily Summary

Daily Weather History Graph

Daily Weather History Graph

Search for Another Location

Airport:

Trip Planner

Search our weather history database for the weather conditions in past years. The results will help you decide how hot, cold, wet, or windy it might be!

Date:

Astronomy

Oct. 09, 2013 Rise Set
Actual Time 7:25 AM CDT 6:42 PM CDT
Civil Twilight 6:56 AM CDT 7:12 PM CDT
Nautical Twilight 6:22 AM CDT 7:45 PM CDT
Astronomical Twilight 5:48 AM CDT 8:19 PM CDT
Moon 12:32 PM CDT (10/9) 10:08 PM CDT (10/9)
Length of Visible Light 12h 15m
Length of Day
11h 17m
Waxing Crescent, 25% of the Moon is Illuminated
Oct 9
Waxing Crescent
Oct 11
First Quarter
Oct 18
Full
Oct 26
Last Quarter
Nov 3
New

Hourly Weather History & Observations

Time (CDT) Temp. Dew Point Humidity Pressure Visibility Wind Dir Wind Speed Gust Speed Precip Events Conditions
12:14 AM 62.2 °F 48.2 °F 60% 29.91 in 10.0 mi South 9.2 mph - N/A   Clear
12:33 AM 62.1 °F 48.2 °F 60% 29.91 in 10.0 mi South 9.2 mph - N/A   Clear
12:53 AM 62.1 °F 48.2 °F 60% 29.92 in 10.0 mi South 9.2 mph 16.1 mph N/A   Clear
1:14 AM 62.1 °F 48.2 °F 60% 29.92 in 10.0 mi South 9.2 mph 16.1 mph N/A   Clear
1:33 AM 61.9 °F 48.2 °F 61% 29.93 in 10.0 mi South 10.4 mph 17.3 mph N/A   Clear
1:53 AM 61.7 °F 48.2 °F 61% 29.94 in 10.0 mi South 10.4 mph 17.3 mph N/A   Clear
2:14 AM 61.3 °F 48.2 °F 62% 29.94 in 10.0 mi South 10.4 mph - N/A   Clear
2:34 AM 60.8 °F 48.2 °F 63% 29.94 in 10.0 mi South 6.9 mph - N/A   Clear
2:53 AM 60.1 °F 48.4 °F 65% 29.95 in 10.0 mi South 9.2 mph - N/A   Clear
3:13 AM 59.0 °F 48.4 °F 68% 29.95 in 10.0 mi South 8.1 mph - N/A   Clear
3:34 AM 58.3 °F 48.4 °F 70% 29.95 in 10.0 mi South 9.2 mph - N/A   Clear
3:54 AM 58.1 °F 48.2 °F 70% 29.95 in 10.0 mi South 9.2 mph - N/A   Clear
4:13 AM 57.7 °F 48.2 °F 70% 29.95 in 10.0 mi South 6.9 mph - N/A   Clear
4:33 AM 57.2 °F 48.2 °F 72% 29.95 in 10.0 mi South 5.8 mph - N/A   Clear
4:54 AM 57.0 °F 48.2 °F 72% 29.96 in 10.0 mi SSE 5.8 mph - N/A   Clear
5:13 AM 56.3 °F 48.2 °F 74% 29.96 in 10.0 mi South 6.9 mph - N/A   Clear
5:34 AM 55.9 °F 48.2 °F 75% 29.96 in 10.0 mi South 5.8 mph - N/A   Clear
5:53 AM 55.6 °F 48.2 °F 76% 29.97 in 10.0 mi South 4.6 mph - N/A   Clear
6:13 AM 55.4 °F 48.2 °F 77% 29.97 in 10.0 mi SSE 4.6 mph - N/A   Clear
6:34 AM 54.9 °F 48.2 °F 78% 29.98 in 10.0 mi South 4.6 mph - N/A   Clear
6:53 AM 54.7 °F 48.2 °F 79% 29.98 in 10.0 mi South 6.9 mph - N/A   Clear
7:13 AM 54.7 °F 48.4 °F 79% 29.99 in 10.0 mi South 6.9 mph - N/A   Clear
7:34 AM 54.9 °F 48.4 °F 79% 29.99 in 10.0 mi South 8.1 mph - N/A   Clear
7:53 AM 55.4 °F 48.4 °F 77% 29.99 in 10.0 mi South 5.8 mph - N/A   Clear
8:13 AM 55.6 °F 48.7 °F 78% 29.99 in 10.0 mi South 6.9 mph - N/A   Clear
8:34 AM 55.6 °F 49.1 °F 79% 30.00 in 10.0 mi South 6.9 mph - N/A   Clear
8:53 AM 57.4 °F 49.5 °F 75% 30.01 in 10.0 mi South 9.2 mph - N/A   Clear
9:13 AM 59.2 °F 49.8 °F 71% 30.01 in 10.0 mi South 8.1 mph - N/A   Clear
9:34 AM 61.5 °F 50.2 °F 66% 30.01 in 10.0 mi South 12.7 mph 18.4 mph N/A   Clear
9:53 AM 61.7 °F 50.0 °F 65% 30.01 in 10.0 mi South 10.4 mph 16.1 mph N/A   Clear
10:14 AM 63.9 °F 50.5 °F 62% 30.02 in 10.0 mi South 11.5 mph 17.3 mph N/A   Clear
10:33 AM 65.5 °F 50.7 °F 59% 30.02 in 10.0 mi SSW 10.4 mph 16.1 mph N/A   Clear
11:13 AM 68.2 °F 51.1 °F 54% 30.02 in 10.0 mi South 9.2 mph 18.4 mph N/A   Clear
11:34 AM 69.3 °F 51.3 °F 53% 30.02 in 10.0 mi SSW 10.4 mph 17.3 mph N/A   Clear
11:53 AM 70.2 °F 50.9 °F 50% 30.02 in 10.0 mi SSW 8.1 mph 17.3 mph N/A   Clear
12:13 PM 70.7 °F 51.1 °F 50% 30.02 in 10.0 mi South 8.1 mph - N/A   Clear
12:34 PM 72.1 °F 51.4 °F 48% 30.02 in 10.0 mi SSW 9.2 mph - N/A   Clear
12:53 PM 72.5 °F 51.8 °F 48% 30.02 in 10.0 mi South 5.8 mph - N/A   Clear
1:14 PM 73.6 °F 51.8 °F 46% 30.01 in 10.0 mi South 8.1 mph - N/A   Clear
1:33 PM 73.6 °F 51.8 °F 46% 30.01 in 10.0 mi SSE 6.9 mph - N/A   Clear
1:53 PM 74.1 °F 51.4 °F 45% 30.01 in 10.0 mi South 9.2 mph 16.1 mph N/A   Clear
2:14 PM 74.5 °F 52.0 °F 45% 30.00 in 10.0 mi SSE 5.8 mph - N/A   Clear
2:33 PM 75.2 °F 52.0 °F 44% 30.00 in 10.0 mi South 10.4 mph 16.1 mph N/A   Clear
2:54 PM 75.6 °F 51.6 °F 43% 30.00 in 10.0 mi SE 11.5 mph 17.3 mph N/A   Clear
3:13 PM 76.1 °F 52.5 °F 44% 29.99 in 10.0 mi South 9.2 mph 17.3 mph N/A   Clear
3:33 PM 76.1 °F 51.8 °F 43% 29.99 in 10.0 mi South 11.5 mph 17.3 mph N/A   Clear
3:54 PM 76.6 °F 52.7 °F 43% 29.99 in 10.0 mi SSE 10.4 mph 16.1 mph N/A   Clear
4:13 PM 76.5 °F 52.3 °F 43% 29.99 in 10.0 mi SE 12.7 mph 20.7 mph N/A   Clear
4:33 PM 76.3 °F 52.0 °F 43% 29.99 in 10.0 mi SSE 8.1 mph - N/A   Clear
4:54 PM 76.1 °F 51.4 °F 42% 29.98 in 10.0 mi SE 11.5 mph - N/A   Clear
5:13 PM 75.7 °F 51.1 °F 42% 29.98 in 10.0 mi SE 9.2 mph - N/A   Clear
5:34 PM 75.2 °F 51.1 °F 43% 29.98 in 10.0 mi SSE 6.9 mph 17.3 mph N/A   Clear
5:54 PM 73.6 °F 50.9 °F 45% - 10.0 mi SSE 5.8 mph - N/A   Clear
6:13 PM 72.5 °F 49.5 °F 44% 29.98 in 10.0 mi SE 6.9 mph - N/A   Clear
6:33 PM 70.5 °F 48.6 °F 46% 29.98 in 10.0 mi SE 4.6 mph - N/A   Clear
6:54 PM 68.9 °F 47.8 °F 47% 29.98 in 10.0 mi SE 6.9 mph - N/A   Clear
7:14 PM 65.3 °F 47.7 °F 53% 29.99 in 10.0 mi SE 5.8 mph - N/A   Clear
7:33 PM 64.0 °F 47.7 °F 55% 29.99 in 10.0 mi SE 5.8 mph - N/A   Clear
7:53 PM 62.8 °F 48.2 °F 59% 29.99 in 10.0 mi SE 6.9 mph - N/A   Clear
8:14 PM 62.1 °F 48.2 °F 60% 29.99 in 10.0 mi SE 5.8 mph - N/A   Clear
8:33 PM 59.4 °F 48.2 °F 67% 30.00 in 10.0 mi SE 3.5 mph - N/A   Clear
8:54 PM 59.0 °F 48.4 °F 68% 30.00 in 10.0 mi SE 4.6 mph - N/A   Clear
9:13 PM 58.5 °F 48.4 °F 69% 30.00 in 10.0 mi SE 3.5 mph - N/A   Clear
9:33 PM 57.6 °F 48.6 °F 72% 30.01 in 10.0 mi SE 4.6 mph - N/A   Clear
9:54 PM 58.6 °F 48.7 °F 70% 30.01 in 10.0 mi SE 4.6 mph - N/A   Clear
10:13 PM 57.9 °F 49.1 °F 72% 30.02 in 10.0 mi SE 4.6 mph - N/A   Clear
10:34 PM 57.2 °F 48.7 °F 73% 30.02 in 10.0 mi SE 5.8 mph - N/A   Clear
10:54 PM 57.9 °F 48.6 °F 71% 30.02 in 10.0 mi SE 4.6 mph - N/A   Clear
11:13 PM 57.4 °F 48.6 °F 72% 30.02 in 10.0 mi SSE 3.5 mph - N/A   Clear
11:34 PM 57.0 °F 48.2 °F 72% 30.03 in 10.0 mi Calm Calm - N/A   Clear
11:53 PM 55.8 °F 47.8 °F 75% 30.03 in 10.0 mi Calm Calm - N/A   Clear